Weather History for Rock Hill, SC

Change the Weather History Date:

Saturday, August 17, 2013

  Actual Average Record
Temperature  
Mean Temperature 64 °F -  
Max Temperature 66 °F 88 °F 100 °F (1954)
Min Temperature 62 °F 69 °F 58 °F (1963)
Degree Days  
Heating Degree Days 1    
Growing Degree Days 14 (Base 50)    
Moisture  
Dew Point 63 °F    
Average Humidity 98    
Maximum Humidity 100    
Minimum Humidity 93    
Precipitation  
Precipitation 0.97 in - - ()
Sea Level Pressure  
Sea Level Pressure 30.16 in    
Wind  
Wind Speed 4 mph (NNE)    
Max Wind Speed 10 mph    
Max Gust Speed -    
Visibility 5 miles    
Events Rain    
Averages and records for this station are not official NWS values.
T = Trace of Precipitation, MM = Missing Value Source: NWS Daily Summary

Daily Weather History Graph

Daily Weather History Graph

Search for Another Location

Airport:

Trip Planner

Search our weather history database for the weather conditions in past years. The results will help you decide how hot, cold, wet, or windy it might be!

Date:

Astronomy

Aug. 17, 2013 Rise Set
Actual Time 6:45 AM EDT 8:09 PM EDT
Civil Twilight 6:19 AM EDT 8:36 PM EDT
Nautical Twilight 5:47 AM EDT 9:08 PM EDT
Astronomical Twilight 5:13 AM EDT 9:41 PM EDT
Moon 5:20 PM EDT (8/17) 2:52 AM EDT (8/17)
Length of Visible Light 14h 17m
Length of Day
13h 23m
Waxing Gibbous, 84% of the Moon is Illuminated
Aug 17
Waxing Gibbous
Aug 20
Full
Aug 28
Last Quarter
Sep 5
New
Sep 12
First Quarter

Hourly Weather History & Observations

Time (EDT) Temp. Dew Point Humidity Pressure Visibility Wind Dir Wind Speed Gust Speed Precip Events Conditions
12:43 AM 63.0 °F 62.1 °F 97% 30.19 in 1.8 mi Calm Calm - 0.14 in Rain Heavy Rain
12:52 AM 62.6 °F 60.8 °F 94% 30.18 in 3.0 mi Calm Calm - 0.16 in Rain Rain
12:53 AM 63.0 °F 61.0 °F 93% 30.16 in 3.0 mi Calm Calm - 0.16 in Rain Rain
1:04 AM 63.0 °F 61.0 °F 93% 30.18 in 5.0 mi Calm Calm - 0.01 in Rain Light Rain
1:21 AM 62.1 °F 61.0 °F 96% 30.18 in 2.5 mi NE 4.6 mph - 0.04 in Rain Heavy Rain
1:35 AM 62.1 °F 61.0 °F 96% 30.17 in 4.0 mi Calm Calm - 0.06 in Rain Light Rain
1:54 AM 62.1 °F 62.1 °F 100% 30.15 in 5.0 mi NE 3.5 mph - 0.07 in Rain Light Rain
2:54 AM 62.1 °F 62.1 °F 100% 30.14 in 4.0 mi NNE 6.9 mph - 0.03 in Rain Light Rain
3:17 AM 62.1 °F 62.1 °F 100% 30.16 in 5.0 mi NNE 6.9 mph - 0.02 in Rain Light Rain
3:54 AM 62.1 °F 62.1 °F 100% 30.13 in 4.0 mi NE 4.6 mph - 0.04 in Rain Light Rain
4:07 AM 62.1 °F 61.0 °F 96% 30.15 in 2.5 mi NE 5.8 mph - 0.05 in Rain Rain
4:15 AM 62.1 °F 62.1 °F 100% 30.15 in 3.0 mi NE 4.6 mph - 0.06 in Rain Light Rain
4:21 AM 62.1 °F 62.1 °F 100% 30.15 in 2.5 mi NNE 6.9 mph - 0.07 in Rain Light Rain
4:31 AM 62.1 °F 61.0 °F 96% 30.15 in 3.0 mi NNE 6.9 mph - 0.08 in Rain Rain
4:54 AM 62.1 °F 62.1 °F 100% 30.14 in 4.0 mi Variable 4.6 mph - 0.10 in Rain Light Rain
5:54 AM 62.1 °F 62.1 °F 100% 30.14 in 7.0 mi NNE 6.9 mph - 0.01 in Rain Light Rain
6:14 AM 62.1 °F 62.1 °F 100% 30.16 in 6.0 mi NE 6.9 mph - 0.00 in Rain Light Rain
6:54 AM 62.1 °F 62.1 °F 100% 30.15 in 7.0 mi NNE 9.2 mph - 0.00 in   Overcast
7:10 AM 62.1 °F 62.1 °F 100% 30.17 in 5.0 mi NNE 9.2 mph - 0.00 in Rain Light Rain
7:30 AM 62.1 °F 62.1 °F 100% 30.17 in 5.0 mi NNE 9.2 mph - 0.00 in Rain Light Rain
7:39 AM 62.1 °F 61.0 °F 96% 30.17 in 6.0 mi NNE 9.2 mph - 0.00 in Rain Light Rain
7:54 AM 62.1 °F 62.1 °F 100% 30.16 in 8.0 mi NE 9.2 mph - 0.00 in   Overcast
8:54 AM 63.0 °F 62.1 °F 97% 30.17 in 9.0 mi NNE 8.1 mph - 0.01 in   Overcast
9:54 AM 64.0 °F 63.0 °F 96% 30.16 in 8.0 mi NE 6.9 mph - 0.00 in Rain Light Rain
10:54 AM 64.0 °F 63.0 °F 96% 30.18 in 10.0 mi NNE 9.2 mph - 0.00 in   Overcast
11:37 AM 64.0 °F 64.0 °F 100% 30.19 in 5.0 mi NNE 9.2 mph - 0.02 in Rain Light Rain
11:54 AM 64.9 °F 64.0 °F 97% 30.18 in 2.5 mi NNE 6.9 mph - 0.03 in Rain Light Rain
12:04 PM 64.0 °F 63.0 °F 96% 30.20 in 3.0 mi NNE 6.9 mph - 0.01 in Rain Light Rain
12:31 PM 64.0 °F 63.0 °F 96% 30.19 in 2.0 mi NNE 5.8 mph - 0.07 in Rain Heavy Rain
12:51 PM 64.4 °F 64.4 °F 100% 30.19 in 3.0 mi NNE 6.9 mph - 0.10 in Rain Rain
12:54 PM 64.0 °F 64.0 °F 100% 30.17 in 2.5 mi NNE 8.1 mph - 0.11 in Rain Rain
1:11 PM 64.0 °F 64.0 °F 100% 30.18 in 4.0 mi NE 5.8 mph - 0.02 in Rain Light Rain
1:21 PM 64.0 °F 64.0 °F 100% 30.18 in 2.0 mi NNE 6.9 mph - 0.05 in Rain Rain
1:31 PM 64.0 °F 64.0 °F 100% 30.18 in 1.2 mi NNE 6.9 mph - 0.10 in Rain Heavy Rain
1:54 PM 64.9 °F 64.0 °F 97% 30.15 in 2.5 mi NNE 10.4 mph - 0.19 in Rain Rain
2:04 PM 64.9 °F 64.9 °F 100% 30.17 in 4.0 mi NNE 5.8 mph - 0.01 in Rain Light Rain
2:54 PM 66.9 °F 64.9 °F 93% 30.14 in 10.0 mi Variable 5.8 mph - 0.06 in   Overcast
3:01 PM 66.9 °F 66.0 °F 97% 30.16 in 10.0 mi NNE 5.8 mph - N/A   Overcast
3:44 PM 66.9 °F 64.9 °F 93% 30.16 in 10.0 mi NNE 5.8 mph - N/A   Overcast
3:54 PM 66.9 °F 64.9 °F 93% 30.14 in 7.0 mi NE 4.6 mph - 0.00 in Rain Light Rain
4:12 PM 66.9 °F 66.0 °F 97% 30.15 in 7.0 mi NNE 4.6 mph - 0.00 in Rain Light Rain
4:30 PM 66.9 °F 66.0 °F 97% 30.15 in 7.0 mi NNE 4.6 mph - 0.01 in Rain Light Rain
4:54 PM 66.0 °F 66.0 °F 100% 30.14 in 4.0 mi NNE 5.8 mph - 0.03 in Rain Light Rain
5:02 PM 66.0 °F 66.0 °F 100% 30.15 in 5.0 mi NNE 5.8 mph - 0.01 in Rain Light Rain
5:54 PM 66.9 °F 66.0 °F 97% 30.13 in 7.0 mi NNE 4.6 mph - 0.03 in Rain Light Rain
6:45 PM 66.0 °F 66.0 °F 100% 30.16 in 6.0 mi ENE 3.5 mph - 0.03 in Rain Light Rain
6:54 PM 66.0 °F 64.9 °F 96% 30.14 in 5.0 mi NE 3.5 mph - 0.03 in Rain Light Rain
7:32 PM 66.0 °F 64.9 °F 96% 30.16 in 7.0 mi Calm Calm - 0.02 in Rain Light Rain
7:52 PM 66.2 °F 64.4 °F 94% 30.16 in 6.0 mi NE 4.6 mph - 0.03 in Rain Light Rain
7:54 PM 66.0 °F 64.9 °F 96% 30.15 in 6.0 mi NE 3.5 mph - 0.03 in Rain Light Rain
8:54 PM 66.0 °F 64.9 °F 96% 30.14 in 9.0 mi NNE 4.6 mph - 0.03 in Rain Light Rain
9:54 PM 66.0 °F 64.9 °F 96% 30.16 in 10.0 mi Calm Calm - 0.00 in Rain Light Rain
10:54 PM 66.0 °F 64.9 °F 96% 30.17 in 3.0 mi Calm Calm - 0.00 in Rain Light Rain
11:10 PM 66.0 °F 64.9 °F 96% 30.19 in 4.0 mi Calm Calm - 0.01 in Rain Light Rain
11:54 PM 66.0 °F 66.0 °F 100% 30.17 in 5.0 mi Calm Calm - 0.01 in Rain Light Rain